Simultaneous Nadir Overpasses (SNOs) Predictions

Prediction of SNOs between METOP-B and NPP Satellite Orbit:

Table of predicted SNOs for the next 14.0 days since TLE Epoch: 5/28/2016
Index Date (METOP-B) Time (METOP-B) Lat,Lon (METOP-B) SZA (METOP-B ) Date (NPP) Time (NPP) Lat,Lon (NPP) SZA (NPP ) Distance(km) Time Diff (sec)
1 05/28/2016 09:14:13 73.40, 34.74 51.86 05/28/2016 09:13:05 73.40, 32.45 51.97 72.74 68
2 05/28/2016 10:04:57 -73.29,-158.19 128.25 05/28/2016 10:03:47 -73.32,-160.05 128.12 59.59 70
3 05/28/2016 10:55:41 73.08, 8.69 51.56 05/28/2016 10:54:29 73.10, 7.73 51.64 31.07 72
4 05/28/2016 11:46:24 -73.02, 175.88 128.51 05/28/2016 11:45:11 -73.02, 175.22 128.46 21.37 73
5 05/28/2016 12:37:07 72.86, -17.13 51.35 05/28/2016 12:35:54 72.86, -17.12 51.36 0.37 73
6 05/28/2016 13:27:49 -72.85, 150.18 128.67 05/28/2016 13:26:38 -72.88, 150.16 128.63 3.37 71
7 05/28/2016 14:18:29 72.84, -42.51 51.32 05/28/2016 14:17:24 72.86, -42.50 51.35 2.67 65
8 05/28/2016 15:09:11 -72.83, 124.80 128.70 05/28/2016 15:08:07 -72.83, 124.88 128.69 2.75 64
9 05/28/2016 15:59:50 72.87, -67.78 51.34 05/28/2016 15:58:54 72.87, -67.89 51.35 3.44 56
10 05/28/2016 16:50:32 -72.86, 99.52 128.68 05/28/2016 16:49:37 -72.84, 99.49 128.69 2.53 55
11 05/28/2016 17:41:12 72.85, -93.17 51.31 05/28/2016 17:40:23 72.82, -93.17 51.29 3.02 49
12 05/28/2016 18:31:54 -72.84, 74.14 128.71 05/28/2016 18:31:07 -72.84, 74.11 128.70 1.15 47
13 05/28/2016 19:22:34 72.83,-118.55 51.28 05/28/2016 19:21:53 72.83,-118.55 51.28 0.33 41
14 05/28/2016 20:13:16 -72.82, 48.76 128.74 05/28/2016 20:12:36 -72.80, 48.83 128.76 3.30 40
15 05/28/2016 21:03:56 72.81,-143.93 51.25 05/28/2016 21:03:23 72.83,-143.94 51.28 2.61 33
16 05/28/2016 21:54:38 -72.80, 23.38 128.77 05/28/2016 21:54:06 -72.80, 23.44 128.76 2.13 32
17 05/28/2016 22:45:18 72.79,-169.31 51.22 05/28/2016 22:44:52 72.79,-169.22 51.22 2.94 26
18 05/28/2016 23:35:59 -72.83, -1.90 128.75 05/28/2016 23:35:36 -72.81, -1.94 128.77 2.90 23
19 05/29/2016 00:26:39 72.82, 165.42 51.24 05/29/2016 00:26:22 72.79, 165.39 51.21 3.17 17
20 05/29/2016 01:17:21 -72.81, -27.28 128.78 05/29/2016 01:17:06 -72.81, -27.33 128.77 1.71 15
21 05/29/2016 02:08:01 72.80, 140.04 51.21 05/29/2016 02:07:52 72.80, 140.01 51.21 0.91 9
22 05/29/2016 02:58:43 -72.79, -52.66 128.81 05/29/2016 02:58:35 -72.77, -52.61 128.83 3.00 8
23 05/29/2016 03:49:23 72.78, 114.65 51.18 05/29/2016 03:49:22 72.80, 114.62 51.20 2.71 1
24 05/29/2016 04:40:05 -72.77, -78.04 128.84 05/29/2016 04:40:05 -72.77, -78.00 128.84 1.50 0
25 05/29/2016 05:30:45 72.76, 89.27 51.15 05/29/2016 05:30:51 72.76, 89.34 51.15 2.33 6
26 05/29/2016 06:21:27 -72.75,-103.42 128.87 05/29/2016 06:21:35 -72.78,-103.38 128.84 3.33 8
27 05/29/2016 07:12:07 72.74, 63.89 51.12 05/29/2016 07:12:21 72.76, 63.96 51.14 3.28 14
28 05/29/2016 08:02:48 -72.78,-128.70 128.85 05/29/2016 08:03:05 -72.78,-128.77 128.85 2.31 17
29 05/29/2016 08:53:28 72.77, 38.62 51.14 05/29/2016 08:53:51 72.77, 38.57 51.14 1.54 23
30 05/29/2016 09:44:10 -72.76,-154.08 128.88 05/29/2016 09:44:34 -72.74,-154.05 128.91 2.80 24
31 05/29/2016 10:34:50 72.75, 13.24 51.11 05/29/2016 10:35:21 72.77, 13.19 51.13 2.95 31
32 05/29/2016 11:25:32 -72.74,-179.46 128.91 05/29/2016 11:26:04 -72.74,-179.43 128.91 0.86 32
33 05/29/2016 12:16:12 72.73, -12.14 51.08 05/29/2016 12:16:50 72.73, -12.09 51.07 1.71 38
34 05/29/2016 13:06:54 -72.72, 155.16 128.93 05/29/2016 13:07:34 -72.75, 155.18 128.92 3.04 40
35 05/29/2016 13:57:34 72.71, -37.53 51.06 05/29/2016 13:58:20 72.73, -37.48 51.07 2.85 46
36 05/29/2016 14:48:15 -72.75, 129.89 128.92 05/29/2016 14:49:04 -72.75, 129.80 128.92 2.94 49
37 05/29/2016 15:38:55 72.74, -62.80 51.07 05/29/2016 15:39:50 72.74, -62.87 51.06 2.18 55
38 05/29/2016 16:29:37 -72.73, 104.50 128.94 05/29/2016 16:30:33 -72.71, 104.52 128.98 2.74 56
39 05/29/2016 17:20:17 72.72, -88.18 51.05 05/29/2016 17:21:20 72.75, -88.25 51.06 3.32 63
40 05/29/2016 18:10:59 -72.71, 79.12 128.97 05/29/2016 18:12:03 -72.71, 79.13 128.98 0.21 64
41 05/29/2016 19:01:39 72.70,-113.56 51.02 05/29/2016 19:02:49 72.70,-113.53 51.00 1.10 70
42 05/29/2016 19:52:21
